Temp
52 52 53 53 55 55 54 54 54 54 53 52 51 51 50 49 46 42 42 43 42 43 43 40 42 43 43 41 43 43 42 42 44 44 44 44 44 46 49 52 54 57 62 62 62 62 62 62 61 60 60 59 58 57 57 57 56 56 55 54 54 53 52 51 50 50 50 50 50 50 50 50 50 50
51 51 51 52 53 53 54 54 53 53 54 52 51 51 52 51 49 46 45 45 45 43 43 43 40 41 41 42 42 42 41 42 44 44 44 43 43 45 46 48 51 52 55 61 63 62 63 62 61 60 59 59 58 57 57 57 56 55 54 53 52 51 50 49 49 49 49 49 49 49 49 49 49 49
50 50 50 51 51 52 53 53 53 53 53 53 52 51 52 51 51 49 48 45 44 44 41 41 42 40 41 42 41 41 42 42 43 43 43 43 42 42 43 45 48 49 51 52 57 62 62 62 62 60 59 58 58 58 57 56 55 54 52 51 50 49 49 48 48 48 47 47 47 48 48 48 48 48
50 49 49 49 49 51 51 52 52 52 52 53 52 52 51 51 51 50 49 48 43 42 43 41 40 41 41 41 40 40 40 42 43 43 42 43 42 42 42 43 45 47 48 49 50 51 56 61 62 61 59 58 58 57 56 55 53 52 50 48 48 47 47 47 47 46 46 46 46 46 46 47 47 47
49 48 48 48 49 50 49 50 50 51 51 52 52 52 51 51 51 50 48 46 39 38 41 40 39 41 41 39 40 39 39 40 42 43 43 43 42 41 41 41 44 45 46 47 47 48 49 51 55 57 57 56 56 54 53 52 50 48 47 46 46 46 45 45 45 45 44 44 44 45 45 45 46 46
47 47 47 47 48 49 48 48 48 49 50 50 51 51 51 51 50 51 50 44 42 37 38 38 39 38 41 38 41 38 39 39 41 41 41 42 42 41 40 40 42 44 45 45 46 46 46 47 48 49 49 50 49 49 48 47 45 45 45 44 44 44 44 43 43 43 43 43 43 43 43 44 44 45
46 46 45 46 47 47 46 47 47 48 48 49 49 50 51 51 51 50 51 46 42 39 36 38 36 37 38 38 38 40 40 40 41 40 39 39 40 40 39 39 40 43 44 44 45 45 45 45 45 45 45 45 46 45 45 44 44 44 43 43 43 42 42 42 42 41 41 41 41 41 41 42 43 44
45 44 44 44 45 45 44 45 45 47 47 47 47 47 48 50 50 50 49 48 43 40 36 36 36 37 37 38 39 40 40 40 39 39 39 39 38 39 39 39 39 41 42 43 43 43 43 44 44 44 44 43 43 43 43 43 43 42 42 42 42 41 41 41 41 40 40 40 40 40 40 40 41 42
44 44 43 43 43 44 43 43 44 45 45 45 46 46 47 47 48 47 47 46 43 40 38 35 36 37 37 38 37 38 36 37 38 39 38 38 37 37 38 38 38 40 41 41 41 42 42 42 42 42 42 42 41 41 41 41 41 41 41 41 41 40 40 40 40 39 39 39 39 39 39 39 40 40
44 43 43 43 43 42 41 42 42 43 43 43 43 44 45 44 45 45 44 44 42 41 39 35 34 35 34 34 34 36 37 35 34 34 36 37 37 37 36 37 37 38 38 37 38 40 40 41 41 41 41 41 40 40 40 40 40 40 40 40 40 40 39 39 39 39 39 39 39 39 39 39 39 39
43 43 42 42 42 41 40 40 40 41 42 42 42 43 43 43 43 42 41 41 41 39 36 34 35 33 34 34 33 36 37 36 35 33 32 32 36 36 35 34 37 38 38 38 38 38 37 38 38 40 40 40 39 39 39 39 39 39 40 39 39 39 39 38 38 38 38 38 38 38 38 38 38 38
42 42 41 42 41 40 39 38 39 40 40 41 41 42 42 42 42 41 40 40 39 37 36 34 33 34 33 33 34 35 34 32 33 33 33 31 32 33 34 34 35 36 36 35 36 37 37 37 38 39 39 39 39 38 38 38 38 39 39 39 38 38 38 38 37 37 37 37 37 38 38 38 38 38
42 41 41 41 40 38 36 36 36 37 37 38 40 41 42 41 41 40 40 39 38 36 35 33 34 33 32 33 33 32 33 33 33 35 35 34 33 33 32 32 32 32 34 35 34 34 34 32 33 33 33 36 38 37 36 37 38 39 39 38 38 38 38 37 37 37 37 37 37 37 37 37 37 37
40 40 40 40 38 36 36 36 36 37 37 37 38 39 41 41 41 40 39 38 38 37 35 34 33 32 32 33 34 34 35 36 36 35 35 32 32 32 31 30 30 30 31 32 32 32 33 33 32 33 33 35 35 34 33 33 35 38 38 38 38 37 37 37 37 36 36 36 36 36 36 37 37 37
38 39 39 39 38 37 37 38 37 37 37 37 37 37 37 37 40 41 39 38 38 37 36 35 34 34 33 34 35 35 35 36 36 36 36 33 32 30 30 27 29 31 29 31 30 30 33 31 32 32 32 33 33 34 33 37 37 37 38 38 37 37 37 36 36 36 36 36 36 36 36 36 36 36
37 37 37 38 38 37 36 36 38 37 35 36 36 36 36 37 37 39 40 39 37 37 36 35 35 35 35 35 35 34 35 35 36 36 36 34 33 32 32 31 28 30 31 30 31 30 31 29 30 31 31 32 32 33 35 37 37 37 37 37 37 37 37 36 36 36 36 36 36 36 36 36 36 36
36 36 36 36 37 37 36 35 36 36 34 35 35 35 35 35 35 37 38 38 40 41 38 37 35 36 36 35 35 36 37 38 35 36 34 34 34 34 33 30 28 29 32 30 31 28 30 29 29 30 30 30 31 31 35 37 37 36 36 37 37 37 36 36 35 35 35 35 35 35 35 35 35 35
35 36 35 35 35 36 36 34 35 36 34 34 34 33 33 33 33 34 34 35 35 38 39 37 36 36 37 36 37 37 39 37 35 36 34 35 34 33 29 29 28 29 31 29 30 27 29 29 30 30 29 31 31 30 34 37 37 36 36 36 37 36 36 35 35 35 35 35 35 35 35 35 35 35
34 36 36 35 35 35 36 35 35 33 33 33 33 32 31 31 32 32 32 32 33 34 36 38 37 35 36 36 36 37 38 38 37 37 36 35 32 28 29 27 28 28 30 26 28 26 31 31 29 29 29 30 30 30 33 37 36 35 35 36 36 36 35 35 35 35 34 34 34 34 34 34 34 33
33 35 35 35 34 35 35 36 37 36 33 31 31 31 31 30 31 31 33 35 34 34 34 34 33 32 33 35 35 35 35 34 33 33 32 32 31 30 27 26 28 26 28 27 27 28 28 28 27 27 28 28 26 27 26 36 35 35 35 35 35 35 35 35 34 34 34 33 33 33 33 33 33 32
31 33 35 35 35 34 34 36 38 38 36 30 31 31 30 30 30 30 32 34 36 36 36 36 37 37 38 38 38 37 37 35 35 34 31 29 31 28 25 25 27 25 25 25 26 28 25 26 25 24 27 27 25 25 25 27 32 32 33 34 34 34 34 34 33 33 33 32 32 32 32 32 31 31
31 32 34 34 34 34 34 36 37 37 36 32 31 30 30 29 28 28 29 29 30 32 33 33 34 35 35 35 36 36 36 37 36 35 30 32 33 30 29 25 25 24 25 23 26 25 25 25 25 23 22 23 20 21 22 24 24 28 28 31 32 32 32 32 32 31 31 31 31 31 31 30 30 27
30 31 33 34 35 34 34 36 37 37 36 33 32 29 29 29 28 28 27 26 26 27 27 27 28 28 28 29 29 30 32 31 29 30 33 35 33 30 29 26 23 20 22 24 25 21 21 21 20 21 9 12 16 22 20 19 18 19 20 23 25 29 30 30 29 30 30 30 30 30 29 29 29 24
28 30 31 33 36 37 37 36 36 37 37 34 33 31 29 29 28 29 27 26 27 27 27 26 26 26 27 27 27 27 26 26 27 28 27 29 33 30 26 25 23 18 20 23 26 18 14 19 8 19 13 11 11 14 16 19 19 18 19 22 21 25 26 26 25 27 28 28 28 28 28 28 28 23
26 28 30 32 35 37 37 36 36 36 37 36 34 33 32 31 30 29 26 27 27 27 26 25 25 25 25 25 25 24 24 24 25 24 25 24 27 30 27 24 20 17 19 23 26 18 10 13 9 12 8 9 9 12 16 19 19 19 19 19 19 20 21 20 21 21 24 26 26 26 26 26 27 25
26 27 29 30 33 36 36 36 36 36 37 37 35 34 36 36 32 28 28 28 27 26 25 24 23 23 22 22 22 22 22 22 22 22 22 22 21 21 24 24 20 15 16 21 24 17 10 8 10 5 7 5 4 14 13 13 15 15 17 15 16 17 18 17 18 19 20 20 19 21 23 25 25 25
27 28 29 30 32 35 36 36 36 36 36 36 35 36 36 35 32 29 26 25 24 23 22 22 20 21 21 19 20 21 21 22 22 22 21 21 20 19 20 20 21 19 18 19 19 19 13 7 15 12 8 10 5 6 8 8 9 14 14 15 15 16 17 16 16 16 17 17 18 21 21 21 22 22
28 29 29 31 32 34 35 35 36 36 35 35 36 36 35 33 30 26 24 23 23 22 21 20 20 20 22 21 20 19 21 21 21 20 20 19 19 18 17 17 17 18 18 19 19 20 17 10 9 16 16 9 3 3 1 7 8 8 9 11 12 13 15 15 14 15 15 16 15 15 13 12 14 14
29 30 31 32 32 32 33 35 35 35 35 35 35 35 34 30 27 25 23 23 22 21 20 20 20 19 20 20 19 19 18 18 18 16 14 15 14 14 13 13 13 13 15 15 15 16 16 15 11 15 9 7 2 -1 5 -0 4 3 7 7 4 8 12 10 14 13 13 14 13 12 11 11 11 12
29 30 30 31 31 31 32 32 32 32 32 34 33 32 31 28 26 24 23 22 21 20 20 19 18 18 18 17 18 18 17 14 13 12 10 9 9 10 10 8 7 8 9 11 12 12 12 12 11 11 4 2 5 -1 2 1 -3 1 5 4 7 9 7 11 11 12 12 10 10 9 10 11 11 11
28 28 29 29 30 30 31 31 32 32 31 31 30 28 27 26 24 24 24 23 22 21 19 17 16 16 17 17 15 13 12 11 13 14 11 10 10 10 9 7 4 3 2 2 5 10 9 10 9 10 -2 -2 -0 1 2 1 -1 -1 1 4 5 4 7 9 9 10 10 9 8 8 8 9 10 11
26 26 27 27 27 28 28 29 28 28 27 25 23 23 24 23 24 24 24 23 22 21 19 16 15 13 13 12 11 12 11 10 10 12 12 11 10 9 8 5 2 0 -1 0 0 2 6 5 4 3 5 -0 -3 -6 -3 -3 -2 -2 -0 3 4 4 6 5 6 7 8 7 5 5 7 7 8 9
24 23 23 23 24 24 24 23 23 22 21 19 20 20 20 20 21 20 19 18 17 16 14 12 12 11 11 10 10 9 8 8 8 10 10 10 9 6 6 4 3 1 -1 -2 0 0 1 -2 2 1 -1 -2 -0 -1 -1 -4 -4 -4 -2 2 1 2 2 3 5 5 6 4 3 4 4 7 8 9
23 22 22 22 22 22 22 21 19 18 18 17 17 17 19 18 18 17 17 16 14 14 13 13 12 10 10 8 8 7 6 7 7 7 9 4 6 5 3 2 0 -0 -1 -3 -3 -2 -1 -0 -0 -2 -1 0 -2 0 -0 -2 -2 -2 -1 -1 1 1 3 3 3 3 3 2 2 1 3 5 8 10
21 21 20 20 21 21 21 20 19 18 17 16 16 16 16 16 16 15 14 13 14 13 12 12 11 11 9 8 7 6 6 5 4 3 3 4 4 3 3 1 -0 -2 -3 -4 -4 -4 -3 -3 -2 -4 -1 -3 -3 -5 5 1 -8 -2 -3 -0 0 2 2 3 3 2 2 1 1 0 1 3 5 9
21 21 20 20 20 19 18 17 17 16 16 16 15 14 13 13 14 13 12 14 13 12 12 10 10 9 8 7 6 6 5 5 3 3 2 2 2 1 1 1 0 -2 -3 -5 -6 -5 -4 -4 -4 -2 -2 -3 -3 -2 -0 14 9 -3 1 -0 1 1 2 2 1 1 1 1 2 1 -1 0 3 6
21 21 20 19 18 17 15 15 15 14 14 14 14 14 13 12 11 12 13 14 13 12 12 11 9 9 8 7 6 6 5 4 2 3 2 2 2 2 1 0 -1 -3 -3 -5 -4 -5 -6 -6 -4 -5 -4 -4 -3 -5 -3 -3 8 13 2 -2 -1 0 0 0 -0 -1 1 2 1 2 1 1 2 5
20 20 18 17 16 14 13 13 12 12 12 12 12 11 10 10 10 10 12 11 10 11 10 9 8 8 7 7 6 4 4 4 4 3 3 3 1 0 0 -1 -2 -4 -5 -4 -4 -6 -7 -7 -6 -8 -6 -6 -9 -6 -8 -7 -5 -1 10 4 -2 -1 0 -2 -2 -1 1 3 2 3 3 1 3 5
16 15 14 13 12 12 11 11 12 11 11 10 9 8 8 8 9 9 9 9 9 8 8 7 7 7 7 6 6 5 4 3 2 2 2 1 1 0 -1 -1 -3 -6 -5 -6 -7 -7 -8 -8 -8 -11 -11 -11 -9 -8 -8 -12 -11 -4 2 10 4 -0 -0 -1 -1 1 1 1 2 4 4 6 9 15
9 9 9 9 9 10 9 10 10 10 8 8 8 8 8 8 8 8 8 7 7 7 7 6 6 6 6 6 5 4 3 2 2 1 0 0 0 0 -1 -2 -3 -5 -5 -7 -7 -9 -10 -10 -9 -11 -11 -11 -10 -10 -10 -8 -8 -8 -7 -1 10 8 4 3 1 1 -0 2 2 0 1 3 3 6
6 6 6 7 7 7 7 7 8 7 7 7 7 8 8 8 7 7 6 6 6 5 5 5 5 4 4 4 4 3 1 0 -0 -0 -0 -1 -0 -1 -1 -1 -5 -6 -5 -9 -10 -11 -10 -8 -5 2 -7 -12 -11 -11 -12 -10 -7 -5 -4 -3 6 10 11 11 5 2 1 3 2 0 -1 -0 0 2
3 3 4 4 4 5 5 5 6 6 6 7 6 6 6 6 5 6 5 5 4 4 4 3 3 3 3 3 3 2 1 -0 -1 -1 -1 -1 -1 -2 -2 -4 -7 -10 -8 -10 -12 -11 -9 -8 -5 -6 -9 -10 -10 -10 -12 -10 -9 -6 -6 -4 -4 5 9 10 11 12 8 5 2 -0 -0 0 2 0
1 0 1 2 3 3 4 4 5 5 5 5 4 4 4 4 4 3 3 2 2 2 2 2 2 2 2 2 2 2 1 -0 -1 -1 -1 -2 -2 -4 -6 -7 -8 -10 -10 -11 -11 -10 -10 -10 -11 -13 -13 -13 -10 -9 -13 -10 -9 -8 -7 -5 -4 -2 -1 7 9 11 12 13 13 9 5 2 -1 -3
-2 -2 -2 -0 0 1 2 3 3 3 3 3 3 4 3 2 2 2 2 1 1 1 1 0 1 1 0 1 0 0 -1 -1 -1 -2 -3 -3 -4 -5 -6 -8 -8 -11 -11 -12 -13 -12 -12 -12 -12 -11 -13 -12 -11 -12 -10 -11 -9 -7 -7 -6 -5 -4 -4 -1 0 5 7 9 10 11 13 14 14 14
-4 -4 -4 -3 -1 -0 0 1 2 2 2 2 2 2 2 1 0 0 0 0 -0 -0 -0 -0 -0 -0 -0 -0 -1 -3 -2 -1 -2 -3 -4 -5 -5 -5 -7 -9 -10 -12 -13 -14 -15 -15 -14 -15 -13 -14 -13 -12 -11 -10 -9 -8 -8 -8 -8 -7 -7 -5 -5 -3 -3 -3 -2 -2 5 10 12 14 15 15
MSLP
1016.66 1016.38 1016.14 1015.85 1015.53 1015.29 1015.17 1015.05 1014.97 1015.02 1015.22 1015.41 1015.49 1015.46 1015.14 1014.97 1014.97 1016.38 1017.09 1017.53 1017.90 1018.29 1018.34 1018.66 1019.05 1019.17 1019.29 1019.38 1019.41 1019.49 1019.58 1019.53 1019.41 1019.46 1019.58 1019.66 1019.66 1019.49 1019.29 1019.14 1018.93 1018.82 1018.78 1018.90 1019.09 1019.34 1019.61 1019.90 1020.17 1020.49 1020.73 1021.02 1021.26 1021.46 1021.58 1021.66 1021.82 1021.93 1022.05 1022.14 1022.14 1022.17 1022.26 1022.29 1022.41 1022.49 1022.53 1022.49 1022.49 1022.46 1022.41 1022.34 1022.22 1022.14
1016.82 1016.61 1016.29 1015.97 1015.73 1015.41 1015.26 1015.09 1015.02 1015.02 1015.05 1015.22 1015.38 1015.34 1015.26 1015.17 1014.73 1015.05 1015.09 1015.29 1016.97 1017.70 1018.34 1018.26 1018.85 1019.29 1019.38 1019.46 1019.58 1019.66 1019.73 1019.70 1019.58 1019.58 1019.61 1019.70 1019.70 1019.58 1019.46 1019.34 1019.22 1019.09 1018.93 1018.82 1018.93 1019.17 1019.34 1019.70 1020.09 1020.41 1020.70 1020.97 1021.22 1021.38 1021.53 1021.66 1021.82 1022.09 1022.26 1022.38 1022.29 1022.38 1022.41 1022.41 1022.49 1022.58 1022.58 1022.58 1022.53 1022.49 1022.41 1022.38 1022.26 1022.17
1016.90 1016.70 1016.49 1016.22 1016.02 1015.70 1015.46 1015.22 1015.05 1015.02 1014.97 1014.93 1015.14 1015.26 1015.29 1015.34 1015.14 1014.78 1014.78 1015.02 1016.58 1017.17 1017.82 1018.22 1018.53 1018.97 1019.34 1019.46 1019.66 1019.82 1019.90 1019.82 1019.73 1019.73 1019.73 1019.78 1019.78 1019.70 1019.66 1019.58 1019.46 1019.34 1019.22 1019.09 1018.97 1018.93 1019.14 1019.46 1019.73 1020.14 1020.58 1020.90 1021.14 1021.34 1021.49 1021.70 1021.97 1022.29 1022.53 1022.53 1022.49 1022.53 1022.58 1022.58 1022.61 1022.66 1022.66 1022.61 1022.61 1022.58 1022.53 1022.41 1022.29 1022.17
1017.05 1016.85 1016.70 1016.49 1016.34 1015.97 1015.70 1015.46 1015.22 1015.05 1014.97 1014.93 1014.97 1015.09 1015.26 1015.29 1015.41 1015.49 1015.05 1014.78 1015.58 1017.70 1017.49 1017.90 1018.53 1018.70 1019.05 1019.38 1019.61 1019.85 1019.97 1019.93 1019.90 1019.93 1019.90 1019.85 1019.82 1019.82 1019.85 1019.82 1019.73 1019.66 1019.53 1019.46 1019.34 1019.26 1019.22 1019.29 1019.53 1019.90 1020.41 1020.73 1021.02 1021.26 1021.53 1021.82 1022.17 1022.58 1022.78 1022.70 1022.70 1022.70 1022.70 1022.70 1022.70 1022.73 1022.78 1022.73 1022.73 1022.70 1022.58 1022.46 1022.34 1022.17
1017.26 1017.14 1016.93 1016.70 1016.49 1016.22 1016.05 1015.85 1015.58 1015.34 1015.14 1015.02 1014.90 1014.85 1014.97 1015.14 1015.34 1015.46 1015.53 1015.26 1016.34 1018.14 1018.17 1018.22 1018.46 1018.70 1018.90 1019.38 1019.49 1019.78 1019.93 1020.02 1020.02 1020.05 1020.02 1019.97 1019.97 1019.97 1020.02 1020.02 1019.97 1019.97 1019.97 1019.97 1019.93 1019.93 1019.93 1019.97 1019.93 1020.02 1020.34 1020.73 1021.14 1021.53 1021.85 1022.22 1022.70 1022.97 1022.93 1022.90 1022.85 1022.85 1022.82 1022.82 1022.85 1022.90 1022.93 1022.90 1022.82 1022.73 1022.66 1022.49 1022.38 1022.17
1017.49 1017.38 1017.26 1016.97 1016.70 1016.46 1016.38 1016.09 1015.82 1015.61 1015.41 1015.26 1015.05 1014.85 1014.82 1014.82 1014.93 1014.93 1015.22 1015.66 1016.09 1017.14 1018.58 1018.73 1018.66 1018.82 1018.85 1019.22 1019.46 1019.66 1019.85 1019.97 1019.97 1020.02 1020.05 1020.09 1020.14 1020.22 1020.26 1020.26 1020.29 1020.26 1020.29 1020.38 1020.41 1020.41 1020.46 1020.53 1020.61 1020.70 1020.90 1021.22 1021.53 1021.93 1022.49 1022.90 1023.02 1023.05 1023.05 1022.97 1022.97 1022.93 1022.93 1022.97 1023.02 1023.02 1023.05 1023.02 1022.93 1022.85 1022.73 1022.58 1022.38 1022.17
1017.73 1017.61 1017.49 1017.29 1017.02 1016.78 1016.61 1016.34 1016.05 1015.70 1015.58 1015.41 1015.29 1015.09 1014.85 1014.73 1014.66 1014.73 1014.70 1015.05 1015.82 1016.66 1018.17 1018.66 1019.05 1018.97 1018.90 1019.02 1019.29 1019.53 1019.70 1019.82 1019.85 1020.02 1020.17 1020.29 1020.34 1020.41 1020.46 1020.49 1020.53 1020.49 1020.49 1020.61 1020.73 1020.82 1020.90 1020.97 1021.14 1021.29 1021.49 1021.82 1022.22 1022.61 1022.82 1022.93 1023.05 1023.09 1023.05 1023.05 1023.05 1023.05 1023.05 1023.09 1023.09 1023.14 1023.14 1023.14 1023.05 1022.93 1022.82 1022.66 1022.41 1022.17
1017.97 1017.90 1017.82 1017.58 1017.38 1017.14 1016.90 1016.58 1016.26 1015.97 1015.73 1015.58 1015.49 1015.29 1015.22 1015.02 1014.73 1014.61 1014.66 1014.66 1015.05 1016.58 1017.49 1018.53 1018.61 1018.97 1019.22 1019.09 1019.22 1019.41 1019.61 1019.73 1019.93 1020.05 1020.26 1020.46 1020.61 1020.70 1020.70 1020.70 1020.73 1020.73 1020.73 1020.82 1020.97 1021.14 1021.22 1021.34 1021.49 1021.70 1021.93 1022.22 1022.53 1022.73 1022.90 1022.97 1023.05 1023.05 1023.05 1023.09 1023.09 1023.14 1023.14 1023.17 1023.17 1023.22 1023.22 1023.22 1023.09 1022.97 1022.82 1022.66 1022.46 1022.17
1018.22 1018.05 1018.02 1017.90 1017.70 1017.46 1017.26 1016.82 1016.58 1016.34 1016.14 1015.93 1015.70 1015.46 1015.17 1015.02 1014.73 1014.66 1014.58 1014.70 1015.02 1015.82 1016.53 1017.93 1018.49 1018.61 1018.97 1019.22 1019.38 1019.41 1019.58 1019.85 1019.97 1020.09 1020.26 1020.58 1020.90 1021.02 1021.02 1020.97 1020.93 1020.90 1020.93 1021.09 1021.22 1021.41 1021.53 1021.61 1021.73 1021.90 1022.14 1022.46 1022.70 1022.82 1022.90 1022.97 1023.02 1023.02 1023.05 1023.09 1023.14 1023.17 1023.22 1023.29 1023.29 1023.29 1023.26 1023.14 1023.05 1022.93 1022.78 1022.61 1022.41 1022.22
1018.41 1018.22 1018.05 1017.97 1017.93 1017.85 1017.70 1017.38 1016.97 1016.70 1016.46 1016.22 1016.02 1015.66 1015.29 1014.97 1014.78 1014.78 1014.85 1014.97 1015.29 1015.66 1016.41 1017.17 1018.17 1018.66 1018.82 1019.26 1019.49 1019.46 1019.61 1019.78 1020.02 1020.22 1020.38 1020.61 1020.97 1021.14 1021.26 1021.34 1021.26 1021.05 1021.05 1021.29 1021.49 1021.70 1021.82 1021.90 1022.02 1022.17 1022.38 1022.53 1022.70 1022.82 1022.90 1022.97 1023.02 1023.02 1023.05 1023.09 1023.17 1023.26 1023.34 1023.34 1023.34 1023.29 1023.22 1023.14 1023.02 1022.90 1022.73 1022.53 1022.38 1022.17
1018.66 1018.38 1018.22 1018.05 1017.93 1018.02 1017.97 1017.82 1017.49 1017.14 1016.78 1016.46 1016.22 1015.90 1015.53 1015.26 1015.05 1015.09 1015.17 1015.34 1015.53 1015.97 1016.70 1017.61 1017.90 1018.34 1018.73 1018.90 1019.29 1019.46 1019.61 1019.85 1019.82 1019.90 1020.38 1020.78 1020.97 1021.14 1021.02 1021.22 1021.41 1021.41 1021.34 1021.34 1021.53 1021.82 1022.05 1022.14 1022.29 1022.38 1022.49 1022.61 1022.73 1022.85 1022.97 1022.97 1023.02 1023.02 1023.05 1023.17 1023.26 1023.34 1023.34 1023.34 1023.34 1023.29 1023.22 1023.09 1022.97 1022.85 1022.66 1022.46 1022.26 1022.02
1018.70 1018.46 1018.29 1018.14 1018.05 1018.02 1018.05 1018.05 1017.78 1017.53 1017.14 1016.73 1016.38 1016.05 1015.82 1015.53 1015.34 1015.34 1015.49 1015.61 1015.85 1016.38 1016.82 1017.17 1017.93 1018.34 1018.66 1019.02 1019.17 1019.38 1019.66 1020.02 1020.09 1019.90 1019.82 1020.38 1020.85 1021.14 1021.14 1020.93 1021.09 1021.46 1021.46 1021.49 1021.70 1021.93 1022.09 1022.26 1022.38 1022.49 1022.66 1022.73 1022.82 1022.90 1022.97 1022.97 1023.05 1023.09 1023.17 1023.26 1023.29 1023.29 1023.29 1023.29 1023.29 1023.26 1023.17 1023.05 1022.93 1022.73 1022.53 1022.34 1022.14 1021.93
1018.58 1018.41 1018.34 1018.22 1018.14 1018.05 1017.93 1017.90 1017.85 1017.66 1017.49 1017.22 1016.78 1016.22 1015.97 1015.78 1015.66 1015.66 1015.73 1015.82 1016.14 1016.58 1016.90 1017.49 1018.05 1018.38 1018.70 1018.82 1018.93 1019.26 1019.29 1019.05 1018.90 1019.41 1019.61 1020.22 1020.70 1021.09 1021.17 1021.26 1021.29 1021.38 1021.41 1021.53 1021.73 1021.93 1022.05 1022.29 1022.49 1022.61 1022.73 1022.78 1022.82 1022.90 1022.97 1023.05 1023.09 1023.17 1023.26 1023.26 1023.26 1023.26 1023.26 1023.26 1023.26 1023.22 1023.14 1022.97 1022.82 1022.66 1022.46 1022.29 1022.09 1021.90
1018.78 1018.53 1018.46 1018.34 1018.17 1018.02 1017.82 1017.58 1017.53 1017.46 1017.34 1017.22 1017.05 1016.73 1016.29 1016.02 1015.85 1015.78 1015.85 1015.97 1016.09 1016.34 1016.78 1017.22 1017.61 1018.14 1018.29 1018.34 1018.34 1018.38 1018.41 1018.66 1018.93 1019.22 1019.46 1020.02 1020.70 1021.02 1021.29 1021.46 1021.41 1021.46 1021.41 1021.53 1021.78 1021.85 1021.93 1022.14 1022.41 1022.53 1022.58 1022.66 1022.78 1022.90 1023.02 1023.09 1023.17 1023.22 1023.26 1023.26 1023.22 1023.22 1023.22 1023.17 1023.14 1023.09 1023.02 1022.90 1022.78 1022.61 1022.46 1022.22 1022.02 1021.78
1019.02 1018.73 1018.58 1018.46 1018.29 1018.14 1017.93 1017.66 1017.41 1017.41 1017.29 1017.14 1016.97 1016.78 1016.58 1016.29 1016.05 1015.85 1015.85 1015.93 1015.97 1016.09 1016.26 1016.73 1017.17 1017.17 1017.41 1017.73 1017.90 1018.09 1018.29 1018.46 1018.49 1018.70 1018.93 1019.61 1020.29 1020.58 1020.61 1020.90 1021.58 1021.53 1021.53 1021.49 1021.73 1021.97 1021.97 1021.97 1022.14 1022.34 1022.49 1022.58 1022.70 1022.85 1022.93 1022.97 1023.09 1023.17 1023.22 1023.26 1023.17 1023.14 1023.09 1023.09 1023.05 1023.02 1022.93 1022.85 1022.73 1022.53 1022.38 1022.14 1021.93 1021.66
1019.22 1018.90 1018.66 1018.46 1018.29 1018.14 1018.02 1017.90 1017.49 1017.29 1017.29 1017.22 1017.05 1016.90 1016.78 1016.58 1016.34 1016.05 1015.78 1015.70 1015.97 1016.02 1016.17 1016.61 1016.70 1016.78 1016.85 1017.17 1017.53 1017.85 1018.02 1018.17 1018.46 1018.61 1018.85 1019.22 1019.53 1019.97 1020.02 1020.29 1020.70 1021.34 1021.46 1021.38 1021.61 1021.97 1022.02 1022.05 1022.09 1022.29 1022.46 1022.58 1022.66 1022.73 1022.82 1022.90 1022.97 1023.09 1023.17 1023.22 1023.14 1023.05 1023.02 1023.02 1023.02 1022.97 1022.90 1022.78 1022.61 1022.46 1022.26 1022.05 1021.73 1021.46
1019.29 1018.97 1018.70 1018.53 1018.34 1018.14 1017.97 1017.85 1017.66 1017.38 1017.22 1017.26 1017.17 1017.09 1016.97 1016.90 1016.73 1016.46 1016.14 1015.82 1015.49 1015.41 1015.70 1015.82 1016.26 1016.22 1016.34 1016.82 1016.93 1016.97 1017.22 1017.58 1018.02 1018.38 1018.73 1018.97 1019.26 1019.41 1019.58 1020.29 1021.22 1021.38 1021.41 1021.41 1021.49 1021.90 1021.97 1021.97 1022.02 1022.26 1022.58 1022.61 1022.61 1022.66 1022.70 1022.78 1022.90 1023.05 1023.14 1023.14 1023.05 1023.02 1023.02 1022.97 1022.97 1022.93 1022.82 1022.70 1022.49 1022.34 1022.09 1021.82 1021.61 1021.22
1019.34 1018.90 1018.70 1018.49 1018.29 1018.17 1018.05 1017.85 1017.70 1017.53 1017.29 1017.09 1017.14 1017.14 1017.14 1017.09 1016.93 1016.78 1016.49 1016.17 1015.82 1015.49 1015.34 1015.41 1015.61 1015.82 1015.97 1016.05 1016.14 1016.58 1016.93 1017.22 1017.58 1017.78 1018.22 1018.53 1018.93 1019.22 1020.05 1020.85 1021.34 1021.53 1021.41 1021.22 1021.05 1021.82 1022.02 1021.97 1021.97 1022.29 1022.61 1022.58 1022.66 1022.61 1022.58 1022.66 1022.82 1023.02 1023.05 1023.05 1023.02 1023.02 1023.02 1023.02 1022.93 1022.85 1022.70 1022.58 1022.41 1022.17 1021.97 1021.66 1021.34 1021.05
1019.34 1018.78 1018.49 1018.34 1018.17 1018.05 1017.93 1017.73 1017.61 1017.53 1017.41 1017.26 1017.05 1017.05 1017.09 1017.22 1017.26 1017.09 1016.85 1016.53 1016.26 1015.78 1015.41 1015.29 1015.34 1015.58 1015.73 1015.97 1016.17 1016.41 1016.70 1016.93 1017.22 1017.34 1017.66 1018.09 1018.97 1020.14 1020.78 1021.14 1021.41 1021.53 1021.58 1021.70 1021.34 1021.46 1021.85 1022.09 1022.22 1022.38 1022.58 1022.61 1022.58 1022.58 1022.53 1022.53 1022.78 1022.97 1023.02 1022.97 1023.02 1023.02 1022.97 1022.93 1022.85 1022.73 1022.61 1022.46 1022.29 1022.09 1021.78 1021.49 1021.17 1020.90
1019.29 1018.70 1018.29 1018.14 1017.97 1017.85 1017.73 1017.58 1017.41 1017.34 1017.34 1017.34 1017.17 1017.02 1017.09 1017.26 1017.38 1017.34 1017.05 1016.78 1016.53 1016.22 1015.90 1015.70 1015.78 1015.90 1015.97 1016.05 1016.26 1016.46 1016.70 1017.17 1017.61 1018.05 1018.58 1019.09 1019.58 1019.85 1020.29 1020.73 1021.26 1021.66 1021.82 1021.78 1021.29 1021.22 1022.17 1022.29 1022.14 1022.41 1022.53 1022.53 1022.46 1022.41 1022.49 1022.53 1022.85 1022.93 1023.02 1023.02 1022.97 1022.97 1022.90 1022.82 1022.73 1022.61 1022.53 1022.41 1022.22 1022.02 1021.73 1021.46 1021.14 1020.78
1019.05 1018.58 1018.14 1017.82 1017.66 1017.58 1017.49 1017.38 1017.22 1017.17 1017.22 1017.29 1017.22 1017.09 1016.97 1017.17 1017.38 1017.58 1017.34 1017.02 1016.73 1016.49 1016.26 1016.09 1016.02 1016.05 1016.05 1016.17 1016.34 1016.58 1016.78 1017.02 1017.38 1017.90 1018.49 1019.05 1019.05 1019.29 1019.85 1020.90 1021.05 1021.70 1021.90 1021.97 1021.93 1021.53 1021.97 1022.38 1022.34 1022.29 1022.53 1022.61 1022.46 1022.61 1022.73 1022.97 1023.09 1023.17 1023.09 1023.05 1022.97 1022.90 1022.85 1022.78 1022.70 1022.66 1022.53 1022.38 1022.22 1021.93 1021.70 1021.38 1021.02 1020.61
1018.70 1018.22 1017.82 1017.53 1017.38 1017.29 1017.22 1017.22 1017.05 1017.02 1017.05 1017.14 1017.14 1017.09 1016.97 1016.90 1017.14 1017.53 1017.70 1017.66 1017.49 1017.14 1016.85 1016.73 1016.61 1016.49 1016.41 1016.38 1016.49 1016.70 1016.93 1017.14 1017.14 1017.05 1017.58 1018.14 1018.41 1018.78 1019.02 1019.82 1020.97 1021.78 1021.93 1022.09 1022.02 1021.78 1021.85 1022.38 1022.46 1022.26 1022.46 1022.46 1022.66 1022.90 1023.17 1023.22 1023.26 1023.29 1023.26 1023.05 1023.02 1022.97 1022.90 1022.85 1022.78 1022.70 1022.58 1022.38 1022.14 1021.93 1021.70 1021.46 1020.97 1020.53
1018.49 1017.90 1017.49 1017.09 1016.93 1016.90 1016.90 1016.97 1016.90 1016.82 1016.85 1016.90 1016.90 1016.97 1016.93 1016.73 1016.70 1017.05 1017.58 1017.93 1017.93 1017.78 1017.49 1017.38 1017.22 1017.22 1017.17 1017.05 1017.02 1017.14 1017.17 1017.34 1017.41 1017.38 1017.38 1017.78 1017.90 1018.26 1018.85 1019.82 1020.97 1021.38 1021.61 1021.97 1021.97 1021.66 1022.02 1022.09 1022.61 1022.34 1021.66 1021.73 1022.61 1022.90 1023.17 1023.29 1023.29 1023.29 1023.29 1023.34 1023.26 1023.14 1023.05 1023.02 1022.97 1022.78 1022.53 1022.34 1022.17 1022.05 1021.85 1021.49 1021.05 1020.53
1018.09 1017.73 1017.26 1016.85 1016.58 1016.46 1016.49 1016.58 1016.61 1016.58 1016.58 1016.58 1016.61 1016.73 1016.82 1016.61 1016.38 1016.61 1017.14 1017.61 1017.82 1017.93 1017.90 1017.82 1017.70 1017.70 1017.66 1017.61 1017.53 1017.58 1017.61 1017.78 1017.82 1017.85 1017.93 1017.82 1017.78 1018.14 1018.93 1019.70 1019.49 1019.29 1020.90 1021.93 1021.90 1021.78 1022.38 1022.49 1022.82 1022.90 1022.53 1021.38 1021.22 1022.53 1023.17 1023.05 1023.17 1023.34 1023.46 1023.46 1023.38 1023.22 1023.22 1023.17 1023.02 1022.82 1022.58 1022.41 1022.29 1022.17 1021.93 1021.53 1021.09 1020.58
1018.05 1017.53 1017.14 1016.70 1016.38 1016.17 1016.14 1016.22 1016.26 1016.29 1016.26 1016.22 1016.29 1016.29 1016.26 1016.14 1016.14 1016.58 1016.90 1017.17 1017.49 1017.85 1018.09 1018.22 1018.14 1018.05 1018.02 1018.02 1017.97 1018.02 1018.09 1018.17 1018.26 1018.29 1018.34 1018.34 1018.14 1018.14 1018.70 1019.49 1020.53 1021.61 1022.14 1022.05 1021.93 1021.90 1022.14 1022.70 1022.82 1022.97 1023.09 1023.17 1023.58 1023.14 1023.22 1023.58 1023.49 1023.53 1023.70 1023.66 1023.66 1023.46 1023.38 1023.26 1023.05 1022.90 1022.70 1022.58 1022.46 1022.26 1021.93 1021.53 1020.97 1020.66
1017.73 1017.38 1016.97 1016.58 1016.22 1015.93 1015.78 1015.78 1015.82 1015.85 1015.82 1015.78 1015.82 1015.78 1015.73 1015.93 1016.29 1016.66 1016.66 1016.70 1017.09 1017.61 1017.97 1018.22 1018.38 1018.34 1018.34 1018.41 1018.46 1018.46 1018.46 1018.53 1018.66 1018.66 1018.73 1018.90 1019.02 1019.17 1019.17 1019.34 1019.93 1020.70 1022.17 1022.09 1022.05 1022.22 1022.34 1022.85 1023.09 1023.26 1023.53 1023.17 1023.49 1024.06 1023.78 1023.46 1023.53 1023.66 1023.73 1023.85 1023.82 1023.66 1023.46 1023.29 1023.09 1022.93 1022.78 1022.66 1022.53 1022.26 1021.85 1021.41 1020.90 1020.29
1017.34 1016.97 1016.73 1016.46 1016.17 1015.82 1015.49 1015.34 1015.29 1015.29 1015.34 1015.34 1015.29 1015.29 1015.46 1015.70 1016.09 1016.58 1016.90 1016.90 1016.90 1017.29 1017.78 1018.17 1018.41 1018.46 1018.53 1018.70 1018.73 1018.78 1018.73 1018.78 1018.85 1018.97 1019.17 1019.38 1019.49 1019.82 1020.17 1020.46 1020.73 1021.17 1021.90 1022.22 1022.26 1022.34 1022.46 1023.05 1023.22 1023.29 1023.38 1023.73 1023.46 1024.21 1024.33 1023.85 1023.34 1023.73 1023.93 1023.85 1023.78 1023.58 1023.46 1023.38 1023.26 1023.05 1022.85 1022.66 1022.46 1022.14 1021.82 1021.34 1020.70 1020.17
1016.93 1016.58 1016.29 1016.14 1015.97 1015.70 1015.29 1015.05 1014.97 1014.90 1014.90 1014.90 1014.85 1014.93 1015.17 1015.49 1015.90 1016.46 1017.02 1017.14 1016.93 1017.02 1017.46 1017.97 1018.26 1018.34 1018.38 1018.49 1018.73 1018.93 1018.97 1019.02 1019.02 1019.26 1019.58 1019.85 1020.05 1020.29 1020.78 1021.22 1021.53 1021.90 1022.14 1022.41 1022.53 1022.61 1022.82 1023.09 1023.46 1023.53 1023.73 1023.73 1023.46 1023.09 1023.05 1024.30 1024.45 1024.42 1024.42 1024.26 1024.14 1023.82 1023.58 1023.49 1023.41 1023.09 1022.85 1022.66 1022.41 1022.09 1021.73 1020.97 1020.17 1019.82
1016.58 1016.29 1015.97 1015.78 1015.66 1015.49 1015.17 1014.78 1014.53 1014.41 1014.34 1014.38 1014.41 1014.61 1014.90 1015.29 1015.85 1016.26 1016.73 1017.02 1017.17 1017.09 1017.02 1017.34 1017.78 1018.14 1018.38 1018.61 1018.78 1019.02 1019.26 1019.41 1019.53 1019.66 1020.17 1020.53 1020.85 1021.05 1021.29 1021.82 1022.22 1022.49 1022.70 1022.93 1023.09 1023.26 1023.38 1023.53 1023.70 1023.70 1023.90 1024.18 1024.06 1024.38 1024.38 1024.21 1024.73 1024.61 1024.69 1024.90 1024.26 1023.78 1023.78 1023.70 1023.49 1023.26 1022.78 1022.53 1022.38 1022.22 1021.93 1021.38 1020.38 1019.70
1016.38 1016.05 1015.82 1015.58 1015.38 1015.17 1014.90 1014.58 1014.22 1014.05 1013.93 1013.93 1014.09 1014.38 1014.66 1015.14 1015.58 1016.05 1016.46 1016.90 1017.02 1017.05 1017.02 1017.22 1017.61 1018.17 1018.70 1019.09 1019.14 1019.38 1019.66 1019.82 1020.02 1019.97 1020.38 1020.70 1021.38 1021.41 1021.53 1021.93 1022.90 1023.29 1023.46 1023.53 1023.66 1023.85 1023.93 1023.97 1024.02 1024.06 1024.33 1024.42 1024.45 1024.61 1024.85 1024.90 1024.54 1024.78 1025.06 1024.97 1024.73 1024.21 1023.70 1023.70 1023.70 1023.34 1023.02 1022.53 1022.17 1021.93 1021.61 1021.29 1020.66 1020.05
1015.58 1015.29 1015.09 1014.93 1014.78 1014.58 1014.41 1014.17 1013.85 1013.66 1013.58 1013.66 1013.90 1014.22 1014.66 1015.05 1015.49 1015.82 1016.09 1016.38 1016.66 1017.09 1017.38 1017.78 1018.22 1018.53 1018.93 1019.26 1019.46 1019.73 1019.97 1020.26 1020.34 1020.14 1020.05 1020.34 1021.14 1021.41 1021.82 1022.09 1023.29 1023.73 1023.97 1024.06 1024.09 1024.18 1024.26 1024.30 1024.33 1024.38 1024.33 1024.42 1024.69 1024.78 1024.94 1025.14 1025.06 1024.90 1024.78 1024.94 1024.81 1024.66 1023.93 1023.90 1023.82 1023.53 1023.14 1022.66 1022.05 1021.61 1021.29 1020.82 1020.05 1019.29
1015.49 1015.22 1015.02 1014.82 1014.46 1014.09 1013.78 1013.58 1013.46 1013.29 1013.29 1013.58 1014.09 1014.49 1014.82 1015.05 1015.38 1015.70 1015.93 1016.29 1016.58 1017.09 1017.61 1018.22 1018.70 1019.22 1019.46 1019.78 1019.93 1020.05 1020.26 1020.41 1020.58 1020.49 1020.29 1020.17 1021.05 1021.46 1021.46 1021.97 1023.34 1023.82 1024.09 1024.14 1024.21 1024.30 1024.30 1024.33 1024.38 1024.49 1024.61 1024.69 1024.21 1024.69 1025.02 1025.18 1025.09 1024.94 1025.06 1024.94 1024.81 1024.78 1024.45 1024.21 1023.90 1023.61 1023.29 1022.85 1022.02 1021.02 1020.53 1020.46 1019.93 1018.82
1015.38 1015.14 1014.90 1014.61 1014.26 1013.78 1013.41 1013.29 1013.34 1013.41 1013.58 1014.02 1014.29 1014.66 1014.97 1015.26 1015.46 1015.73 1015.97 1016.34 1016.85 1017.41 1017.97 1018.49 1018.73 1019.22 1019.66 1020.14 1020.34 1020.41 1020.53 1020.73 1020.82 1020.82 1020.73 1020.82 1020.90 1021.53 1021.73 1022.29 1023.26 1023.58 1023.73 1023.97 1024.21 1024.33 1024.30 1024.33 1024.38 1024.45 1024.57 1024.69 1024.78 1024.85 1024.69 1024.06 1024.30 1025.06 1024.97 1024.90 1024.94 1024.81 1024.49 1024.30 1024.18 1023.78 1023.26 1022.78 1022.14 1021.34 1020.26 1019.58 1019.41 1018.82
1015.14 1014.82 1014.53 1014.26 1013.90 1013.58 1013.34 1013.22 1013.38 1013.58 1013.82 1014.22 1014.66 1014.97 1015.09 1015.29 1015.58 1015.82 1016.14 1016.49 1017.02 1017.53 1018.05 1018.46 1018.90 1019.38 1019.61 1020.02 1020.29 1020.58 1020.70 1020.93 1021.09 1021.14 1021.02 1021.22 1021.38 1021.66 1022.34 1023.02 1023.73 1024.06 1024.18 1024.38 1024.54 1024.66 1024.61 1024.54 1024.30 1024.21 1024.45 1024.69 1024.94 1024.97 1024.97 1024.66 1024.45 1024.66 1024.85 1025.02 1024.90 1024.66 1024.33 1024.21 1024.09 1023.93 1023.85 1023.73 1023.05 1021.82 1020.29 1018.78 1018.09 1017.85
1014.70 1014.49 1014.14 1013.93 1013.66 1013.46 1013.17 1013.02 1013.09 1013.38 1013.66 1014.09 1014.46 1014.90 1015.14 1015.38 1015.58 1015.93 1016.34 1016.73 1017.09 1017.58 1018.09 1018.66 1019.09 1019.46 1019.73 1019.97 1020.17 1020.41 1020.61 1020.85 1021.26 1021.46 1021.66 1021.78 1022.05 1022.34 1022.70 1023.26 1023.93 1024.30 1024.49 1024.61 1024.81 1024.90 1024.97 1024.85 1024.57 1024.30 1024.14 1024.14 1024.21 1024.73 1024.81 1024.85 1025.02 1024.85 1024.94 1024.78 1024.61 1024.49 1024.18 1024.14 1024.02 1023.82 1023.70 1023.53 1023.17 1022.73 1021.34 1019.66 1018.09 1016.85
1013.82 1013.82 1013.66 1013.53 1013.29 1013.41 1013.38 1013.38 1013.22 1013.29 1013.41 1013.82 1014.34 1014.90 1015.29 1015.70 1015.82 1016.05 1016.46 1016.66 1016.97 1017.49 1018.02 1018.58 1019.09 1019.58 1020.02 1020.26 1020.38 1020.49 1020.70 1020.93 1021.29 1021.58 1021.97 1022.34 1022.61 1023.02 1023.22 1023.58 1023.93 1024.49 1024.81 1025.02 1025.21 1025.18 1025.21 1025.14 1024.78 1023.46 1022.46 1024.18 1023.61 1022.66 1023.73 1024.21 1024.61 1024.94 1024.81 1024.85 1024.78 1024.66 1024.38 1024.21 1024.09 1023.90 1023.53 1023.09 1022.85 1022.70 1022.22 1020.61 1018.82 1017.09
1013.17 1012.97 1013.05 1013.09 1013.22 1013.38 1013.58 1013.66 1013.66 1013.70 1013.66 1013.90 1014.46 1014.85 1015.22 1015.61 1016.14 1016.41 1016.58 1016.73 1017.14 1017.46 1017.90 1018.34 1018.97 1019.53 1020.05 1020.34 1020.58 1020.70 1020.85 1020.90 1021.41 1021.90 1022.34 1022.66 1022.85 1023.02 1023.34 1023.97 1024.33 1024.69 1024.97 1025.21 1025.33 1025.45 1025.49 1025.54 1025.33 1024.69 1023.78 1023.34 1023.26 1023.61 1024.66 1024.69 1024.54 1024.66 1024.94 1025.33 1025.14 1024.90 1024.61 1024.30 1024.06 1023.58 1023.09 1022.85 1022.41 1022.17 1021.70 1020.97 1019.26 1017.58
1012.49 1012.49 1012.66 1012.93 1013.09 1013.41 1013.70 1013.90 1014.09 1014.26 1014.34 1014.38 1014.78 1015.22 1015.73 1016.14 1016.41 1016.66 1016.82 1017.14 1017.46 1017.66 1018.05 1018.58 1019.14 1019.66 1020.05 1020.22 1020.41 1020.85 1021.22 1021.38 1021.53 1022.02 1022.41 1022.61 1022.82 1023.26 1023.53 1024.06 1024.57 1024.85 1025.02 1025.26 1025.45 1025.69 1025.90 1026.02 1025.85 1025.66 1024.78 1024.09 1023.93 1024.66 1024.73 1025.38 1025.06 1024.45 1024.78 1025.26 1025.45 1024.97 1024.73 1024.54 1023.97 1023.41 1022.61 1022.14 1022.14 1021.49 1021.09 1020.34 1018.85 1017.58
1012.49 1012.41 1012.78 1013.14 1013.49 1013.73 1014.02 1014.17 1014.26 1014.49 1014.61 1014.85 1015.17 1015.53 1015.97 1016.38 1016.61 1016.85 1017.17 1017.49 1017.70 1018.05 1018.41 1018.85 1019.41 1019.78 1020.05 1020.38 1020.58 1020.70 1021.05 1021.41 1021.85 1022.26 1022.61 1022.93 1023.05 1023.41 1023.97 1024.30 1024.61 1024.90 1025.06 1025.38 1025.66 1025.97 1026.18 1026.21 1026.30 1026.33 1025.97 1025.42 1024.85 1025.42 1026.38 1026.54 1025.38 1025.09 1025.18 1025.09 1025.21 1025.02 1024.61 1024.38 1023.97 1023.22 1022.85 1022.14 1021.17 1020.66 1020.14 1019.38 1018.29 1017.34
1014.09 1013.90 1013.97 1014.05 1014.34 1014.41 1014.58 1014.58 1014.73 1014.85 1015.05 1015.34 1015.66 1015.97 1016.22 1016.49 1016.73 1017.05 1017.38 1017.73 1018.05 1018.34 1018.61 1019.02 1019.49 1019.97 1020.34 1020.49 1020.73 1021.09 1021.46 1021.73 1022.09 1022.53 1022.93 1023.26 1023.61 1023.90 1024.18 1024.45 1024.57 1024.90 1025.21 1025.49 1025.81 1026.14 1026.21 1026.30 1026.42 1026.45 1026.57 1026.57 1026.61 1026.69 1026.85 1027.06 1026.94 1026.42 1026.06 1025.45 1025.02 1024.81 1024.54 1024.18 1023.90 1023.41 1022.61 1022.05 1021.78 1021.17 1019.82 1018.41 1017.53 1016.17
1014.82 1014.78 1014.90 1014.93 1015.02 1015.14 1015.17 1015.22 1015.22 1015.34 1015.61 1015.90 1016.17 1016.41 1016.58 1016.73 1017.02 1017.38 1017.66 1018.02 1018.29 1018.58 1018.93 1019.34 1019.73 1020.09 1020.41 1020.73 1021.02 1021.09 1021.70 1022.41 1022.78 1023.14 1023.46 1023.73 1024.02 1024.18 1024.38 1024.54 1024.94 1025.18 1025.38 1025.73 1026.06 1026.18 1026.21 1026.30 1026.33 1026.33 1026.45 1026.54 1026.61 1026.78 1026.57 1025.97 1025.26 1025.18 1025.30 1025.21 1025.09 1024.85 1024.49 1024.21 1023.90 1023.49 1022.97 1022.05 1021.85 1021.49 1020.73 1019.66 1018.70 1017.38
1015.73 1015.70 1015.78 1015.78 1015.73 1015.78 1015.78 1015.85 1015.93 1015.97 1016.09 1016.26 1016.53 1016.78 1017.02 1017.26 1017.58 1017.78 1018.14 1018.49 1018.78 1018.93 1019.17 1019.58 1019.97 1020.29 1020.70 1020.97 1021.26 1021.53 1021.85 1022.46 1023.05 1023.58 1023.85 1023.93 1024.21 1024.54 1024.85 1025.06 1025.21 1025.61 1025.57 1025.73 1026.02 1026.21 1026.30 1026.30 1026.30 1026.30 1026.38 1026.30 1026.09 1025.57 1025.30 1025.97 1025.94 1025.57 1025.57 1025.42 1025.14 1024.78 1024.42 1023.97 1023.53 1023.09 1022.61 1022.17 1021.78 1021.29 1020.41 1019.38 1018.82 1018.22
1016.82 1016.73 1016.61 1016.49 1016.41 1016.38 1016.41 1016.41 1016.41 1016.46 1016.58 1016.73 1017.02 1017.17 1017.41 1017.70 1017.97 1018.34 1018.66 1019.02 1019.22 1019.34 1019.61 1019.97 1020.26 1020.58 1020.93 1021.26 1021.53 1021.78 1022.17 1022.78 1023.22 1023.61 1023.97 1024.26 1024.45 1024.78 1025.26 1025.57 1025.73 1025.94 1025.97 1026.14 1026.30 1026.42 1026.38 1026.33 1026.30 1026.26 1026.21 1026.09 1026.06 1026.14 1026.18 1026.30 1026.45 1026.18 1025.54 1025.18 1024.81 1024.49 1024.18 1023.66 1023.14 1022.61 1022.14 1021.73 1021.41 1021.17 1020.90 1020.53 1020.26 1019.22
1017.90 1017.66 1017.49 1017.26 1017.05 1016.97 1016.97 1016.97 1016.97 1017.02 1017.14 1017.29 1017.41 1017.58 1017.78 1018.02 1018.41 1018.73 1019.05 1019.34 1019.49 1019.73 1019.97 1020.29 1020.66 1020.90 1021.26 1021.61 1021.97 1022.38 1022.73 1023.09 1023.41 1023.78 1024.18 1024.61 1024.97 1025.18 1025.45 1025.78 1025.97 1026.09 1026.26 1026.38 1026.45 1026.42 1026.45 1026.33 1026.18 1026.14 1026.06 1026.09 1026.26 1026.30 1026.30 1026.38 1026.38 1026.18 1025.90 1025.38 1024.85 1024.33 1023.58 1022.93 1022.53 1022.14 1021.73 1021.41 1020.97 1020.66 1020.29 1019.93 1019.49 1018.73
1018.70 1018.41 1018.17 1017.93 1017.73 1017.61 1017.53 1017.49 1017.49 1017.53 1017.61 1017.70 1017.85 1018.02 1018.26 1018.53 1018.85 1019.17 1019.58 1019.78 1019.93 1020.14 1020.38 1020.66 1020.97 1021.34 1021.66 1022.02 1022.22 1022.66 1023.17 1023.53 1023.85 1024.30 1024.66 1025.02 1025.26 1025.45 1025.66 1025.85 1026.06 1026.21 1026.30 1026.42 1026.26 1026.30 1026.33 1026.30 1026.26 1026.26 1026.33 1026.42 1026.45 1026.49 1026.57 1026.61 1026.54 1026.33 1025.97 1025.54 1024.94 1024.42 1023.97 1023.17 1022.17 1021.02 1020.58 1020.29 1020.41 1020.22 1019.73 1019.29 1018.66 1018.02
Wind_Speed
6 6 6 6 5 4 3 3 3 2 3 4 5 6 7 5 6 4 4 5 6 4 5 4 3 4 4 4 2 2 2 2 3 4 4 4 4 8 10 11 11 7 12 14 14 13 12 12 11 11 11 10 10 9 8 7 6 5 5 7 9 10 11 11 10 10 10 11 11 12 12 13 14 14
6 6 6 5 5 5 5 4 3 3 4 5 5 6 5 3 6 6 6 4 4 3 2 2 4 4 5 4 3 3 2 3 3 3 3 3 4 8 9 10 11 11 9 7 14 12 12 12 12 11 10 9 9 8 7 6 5 5 4 7 10 11 11 11 10 10 11 11 11 12 13 13 14 14
6 7 7 7 6 6 6 5 3 3 3 4 5 5 4 4 4 5 6 3 1 3 7 2 3 6 5 5 4 3 1 1 3 3 3 4 6 8 7 10 11 13 12 14 7 11 13 11 12 12 10 9 8 8 6 5 5 5 4 8 10 11 11 11 11 11 11 11 12 12 13 13 14 15
7 7 8 7 7 7 6 5 4 3 3 3 4 5 5 4 2 1 4 6 4 2 2 5 5 8 8 6 6 4 2 1 3 2 2 3 5 4 5 8 12 12 14 14 13 17 11 6 12 11 10 9 8 7 6 5 6 5 7 10 10 11 10 11 11 11 11 11 12 12 13 14 14 15
9 8 9 8 8 7 7 5 5 4 3 3 4 4 5 6 4 3 3 4 3 2 2 3 5 7 8 6 6 6 5 4 3 3 1 2 3 4 4 5 9 12 13 13 15 15 15 16 12 10 10 7 7 9 10 8 6 7 9 10 10 11 11 11 11 11 11 12 12 13 13 14 14 15
8 9 9 9 9 7 7 7 7 5 5 4 4 5 5 6 6 7 6 2 5 5 1 3 4 6 6 5 5 7 7 5 4 3 2 2 3 4 4 5 6 12 12 14 14 14 16 16 15 16 15 13 13 12 9 8 8 9 9 10 11 11 11 11 11 11 11 11 12 12 13 14 14 15
9 9 10 10 9 8 9 8 7 6 5 4 5 5 4 5 5 6 7 6 5 8 5 4 5 4 5 5 7 6 5 5 5 5 3 3 3 4 4 4 4 9 12 13 13 14 14 14 15 15 15 14 12 10 9 10 9 9 10 10 11 11 11 11 11 11 11 11 11 12 13 14 15 16
8 8 10 10 10 9 9 9 8 7 6 5 5 5 5 5 5 4 5 6 5 5 7 6 7 5 4 2 6 5 6 6 5 4 4 4 4 4 4 5 4 7 12 12 13 13 13 13 13 13 13 13 11 10 10 10 10 10 10 10 10 10 10 10 10 10 10 10 11 12 13 14 15 16
8 7 7 9 10 10 10 9 8 7 7 6 5 5 5 5 5 3 5 5 5 7 8 6 4 6 4 2 3 6 8 6 5 5 5 4 4 4 4 4 4 9 12 11 12 11 11 11 12 12 12 12 11 10 10 10 10 10 10 10 10 10 10 9 9 10 10 10 11 12 13 14 14 15
8 7 6 7 8 9 9 9 9 8 8 6 5 6 4 2 2 3 2 3 4 6 7 9 7 5 6 5 3 4 6 8 7 5 5 6 4 5 4 3 2 2 4 4 5 7 8 10 11 10 11 11 11 11 10 10 10 10 9 10 9 9 9 9 9 10 10 11 11 12 13 14 15 15
8 7 5 5 5 7 7 8 9 9 8 6 6 6 5 1 1 2 3 4 5 6 7 4 4 6 4 5 7 4 4 4 6 9 7 5 3 3 6 6 2 1 3 5 5 6 5 6 5 9 10 11 11 10 10 10 10 9 9 9 9 8 8 9 9 9 10 11 11 12 13 14 15 16
7 7 6 5 4 4 5 6 7 7 8 7 7 5 4 1 1 3 3 4 6 7 6 6 7 5 6 5 3 4 5 5 3 5 5 9 7 6 2 2 6 4 4 4 4 5 6 5 7 9 9 10 11 10 8 9 9 9 9 8 8 9 9 9 9 9 10 11 12 13 14 15 16 17
9 7 6 6 5 5 5 6 6 6 6 6 7 6 3 3 1 2 3 4 5 5 6 6 5 6 6 6 8 9 10 12 10 8 6 5 5 5 5 3 3 1 4 4 4 4 5 5 4 4 4 4 7 7 7 5 8 8 8 9 9 9 9 9 9 9 10 12 13 14 15 16 17 18
10 8 8 8 10 10 9 6 6 8 8 7 5 5 5 3 3 3 4 5 5 7 7 8 9 8 8 9 10 10 8 5 6 8 8 9 6 6 5 3 1 1 3 4 5 3 3 6 5 4 4 3 3 3 4 3 4 5 7 8 9 9 9 9 9 10 11 12 13 14 15 16 18 19
11 10 9 8 9 9 7 6 4 6 8 7 6 6 4 3 3 4 5 5 6 7 7 7 7 8 9 9 8 8 7 7 8 9 8 8 8 8 9 6 1 0 4 3 4 2 0 3 6 5 5 3 3 3 3 6 7 5 6 7 8 9 9 9 10 10 12 13 14 15 16 17 18 19
10 9 9 8 7 6 6 6 4 2 4 5 5 5 6 7 6 4 2 5 6 6 6 7 8 8 9 9 9 8 8 9 7 7 8 10 10 9 7 5 6 2 4 5 5 4 1 2 3 5 3 3 3 3 4 5 6 5 5 6 8 9 10 10 10 11 12 13 14 15 17 17 19 20
10 9 9 8 7 6 8 6 5 2 0 3 4 5 6 6 8 8 7 5 3 6 6 7 8 9 8 8 10 10 10 8 9 8 8 8 8 6 6 5 3 0 1 4 4 4 2 2 2 6 3 3 1 0 5 6 6 4 4 6 9 10 10 10 11 12 13 14 15 16 17 19 19 21
11 10 8 8 8 8 7 5 6 5 2 1 1 2 3 4 6 7 8 7 6 3 6 7 9 7 6 9 8 9 9 11 11 11 9 9 9 7 5 5 5 2 1 5 4 3 2 1 4 4 1 2 2 1 4 7 5 3 3 6 9 10 10 10 11 13 14 15 16 17 18 19 20 21
12 11 9 9 9 9 8 6 5 4 4 2 1 1 2 3 4 4 5 5 4 3 2 5 5 4 5 5 6 8 8 8 5 5 7 8 8 10 9 7 4 4 4 2 1 4 3 1 3 0 2 2 2 1 2 5 5 2 3 6 9 9 10 10 13 14 15 17 17 18 18 20 21 22
11 11 9 8 8 8 9 8 8 7 4 3 3 3 2 2 3 4 4 3 2 2 1 2 4 4 4 7 7 6 7 7 7 9 9 10 10 9 6 5 2 3 3 4 1 4 2 1 3 1 1 2 2 2 2 7 6 2 8 9 9 10 10 12 14 16 17 17 18 18 19 20 22 23
11 11 10 9 9 8 8 9 11 10 7 4 4 4 3 3 2 3 4 7 9 8 10 11 12 13 14 14 13 12 12 10 10 10 9 8 9 9 7 3 3 2 1 3 3 2 3 1 2 1 1 1 1 5 5 6 8 10 9 9 10 11 12 14 15 16 17 17 17 18 19 21 22 26
11 12 16 12 8 8 8 12 14 11 8 6 6 5 5 4 4 2 1 3 5 11 12 13 13 13 14 15 15 13 11 9 8 12 12 11 9 8 9 7 4 3 2 1 3 3 3 2 3 2 3 3 1 4 2 3 3 6 7 10 12 12 14 15 16 16 16 17 17 18 20 21 22 15
10 11 12 15 13 10 10 15 14 13 10 8 7 6 5 6 6 6 5 3 2 1 4 4 5 7 7 7 8 8 13 11 7 4 5 9 9 9 7 8 7 3 1 1 3 4 0 4 3 2 1 1 1 2 3 2 3 4 4 5 6 12 13 15 15 16 16 16 17 18 20 21 19 11
10 10 10 10 15 16 15 14 15 15 16 10 8 6 7 8 8 7 8 5 4 2 1 2 3 4 4 4 4 5 5 6 6 5 4 2 6 8 9 8 6 5 4 1 1 5 0 3 1 3 2 3 1 1 3 4 5 4 4 6 6 9 11 12 11 15 15 16 17 18 19 20 20 12
11 10 10 9 13 16 15 14 15 16 17 16 10 9 9 9 4 9 9 8 7 4 4 3 3 3 3 4 4 4 5 5 4 5 5 6 4 7 10 8 5 4 3 1 2 4 3 2 2 2 3 3 0 2 3 2 3 2 5 6 6 7 6 6 5 6 9 14 16 18 17 20 24 18
11 10 10 9 12 16 15 15 15 17 17 19 12 12 16 11 13 9 7 8 8 5 5 4 3 3 2 3 3 4 4 4 6 5 6 6 8 8 5 5 10 8 4 2 6 3 5 2 2 3 0 2 2 1 2 5 2 1 5 4 4 6 6 6 6 6 6 7 7 10 15 22 23 25
13 10 10 11 17 19 16 16 17 17 18 16 12 16 15 13 15 10 6 7 8 8 7 6 5 5 4 4 3 4 5 5 5 6 7 7 8 9 9 9 7 10 7 5 4 4 4 3 2 5 2 1 2 1 0 1 4 3 5 5 6 7 6 5 6 7 7 8 7 16 17 19 22 23
13 12 11 11 20 23 19 18 18 17 15 12 17 16 15 16 14 8 7 7 7 8 8 7 7 7 5 5 4 4 4 5 7 8 8 9 9 10 9 10 10 9 8 7 6 6 5 5 3 2 4 4 5 2 1 3 2 3 4 6 6 6 6 6 6 8 7 7 8 8 9 12 12 12
13 16 23 24 23 25 27 24 18 16 17 19 17 15 16 14 8 8 7 7 7 8 10 9 7 6 4 3 4 5 5 6 7 9 8 9 9 9 11 10 9 8 6 6 6 6 4 4 3 3 3 1 4 1 1 2 1 3 3 6 6 6 7 3 7 8 9 9 8 9 9 11 14 12
28 27 27 28 28 26 23 17 13 10 9 14 14 14 15 9 8 7 7 7 8 8 7 8 8 6 5 6 6 7 7 7 7 9 10 10 8 8 9 11 10 8 7 7 6 5 5 4 3 3 3 0 1 2 1 0 3 3 3 3 6 7 3 4 7 6 9 10 10 10 9 8 11 11
14 14 15 14 19 19 23 23 18 15 11 10 9 7 8 6 6 7 7 8 8 6 6 6 4 4 5 5 7 6 6 6 4 4 9 10 9 8 7 11 8 7 5 4 3 5 5 3 3 2 4 0 0 1 2 1 2 4 5 4 4 5 7 6 5 7 8 10 11 9 8 8 11 11
12 13 14 16 13 14 14 15 12 9 7 7 7 7 6 6 7 7 6 5 4 4 5 5 6 7 6 7 6 6 6 5 4 3 6 10 10 7 8 8 5 4 3 3 4 3 4 2 0 1 1 3 2 0 1 1 3 4 4 4 3 5 5 7 8 8 8 10 12 13 11 8 10 12
13 9 9 10 11 11 10 8 7 6 6 6 6 7 6 6 6 7 7 8 7 7 9 9 9 8 8 7 6 6 7 5 5 2 6 5 9 6 7 9 7 6 5 4 3 5 5 5 3 2 3 3 3 2 1 1 2 2 2 5 4 5 5 5 5 8 10 11 12 12 14 10 7 10
15 13 11 10 9 8 7 7 7 7 7 7 6 5 6 6 6 6 6 7 8 8 8 8 8 8 8 9 8 7 8 7 5 3 5 5 6 8 8 9 6 5 5 5 4 5 6 6 5 3 1 1 1 4 5 4 3 4 3 4 4 6 5 4 5 6 6 6 11 15 16 17 15 10
12 11 11 9 9 8 8 9 9 9 8 8 7 7 6 6 7 7 7 7 8 8 8 7 7 6 7 8 8 9 8 9 7 6 5 6 6 7 8 9 7 6 6 5 4 4 5 5 5 3 5 4 3 2 7 6 1 4 3 4 4 7 8 6 7 7 7 7 4 9 14 15 15 14
13 11 11 10 9 7 7 6 5 7 8 8 7 8 7 6 6 7 8 8 8 9 9 9 8 7 7 7 7 8 8 9 8 7 7 7 8 7 7 8 7 6 6 6 4 2 3 5 3 6 6 5 4 4 6 7 9 1 5 7 6 7 7 7 7 7 8 7 5 6 10 15 17 17
11 10 10 9 7 6 5 5 4 5 5 7 7 6 7 7 6 6 6 8 8 8 8 9 8 8 7 7 8 8 8 9 9 8 8 7 7 8 9 7 7 6 6 4 4 2 3 5 5 6 7 7 7 3 4 5 4 6 6 5 7 6 8 9 9 9 7 6 9 7 9 11 16 17
10 8 7 7 6 5 4 3 4 4 4 5 6 6 6 6 6 5 6 7 7 7 8 8 7 8 7 7 9 8 7 7 8 8 7 7 8 7 8 8 7 6 7 5 4 4 4 5 5 4 5 7 4 1 2 6 6 6 6 7 6 10 7 8 9 10 12 8 7 9 9 12 15 14
4 5 4 4 3 4 4 4 4 4 4 6 7 9 6 6 7 7 7 7 7 8 8 8 8 7 7 7 6 8 9 9 8 7 7 6 7 9 7 7 7 4 6 6 5 6 4 5 5 3 3 4 2 1 1 2 6 8 12 17 9 7 7 6 10 10 9 11 12 11 10 11 16 22
5 6 5 4 4 3 3 3 4 4 6 6 8 8 7 8 7 7 7 7 8 7 8 8 9 8 7 7 8 7 8 8 8 7 7 7 6 6 7 5 7 7 6 6 5 3 4 4 2 1 1 1 3 4 3 4 4 6 7 10 12 9 8 8 9 10 12 9 9 11 15 15 15 13
6 7 5 4 4 3 3 3 4 7 8 7 7 5 5 6 7 7 7 7 8 9 9 8 8 8 8 7 7 8 10 8 7 7 7 7 7 7 7 6 6 5 7 4 4 3 2 1 0 0 2 2 2 0 1 2 5 6 6 7 8 14 14 12 10 9 10 11 10 10 12 14 14 15
6 6 5 5 5 5 4 5 5 6 5 5 6 6 6 6 6 8 9 8 8 8 8 8 8 8 8 7 7 8 9 9 8 7 7 7 8 6 6 5 6 3 6 6 4 1 0 0 0 0 0 0 1 5 5 4 7 8 6 6 6 8 13 17 18 16 12 10 10 10 10 10 8 12
6 5 5 4 5 4 4 4 4 4 5 5 6 6 7 7 8 8 7 8 7 8 8 8 7 8 7 7 7 7 9 8 8 8 7 6 7 8 6 5 5 5 5 5 2 1 1 2 2 2 2 3 3 3 2 5 5 7 9 8 9 8 7 12 15 18 18 19 17 13 9 8 9 10
6 5 5 4 5 5 4 4 4 4 5 6 6 6 7 8 8 7 7 7 7 8 7 8 8 8 8 7 8 8 7 7 7 8 7 6 6 6 6 5 4 4 5 4 4 2 2 3 3 2 4 5 3 3 5 4 6 8 8 9 9 10 12 9 7 9 11 14 17 18 19 18 17 21
6 5 5 5 5 5 5 5 5 5 5 6 6 6 7 7 7 7 7 7 7 8 8 8 8 8 8 7 7 7 7 7 7 7 7 7 6 6 5 5 6 4 5 3 4 2 2 3 4 3 3 3 2 1 3 4 6 8 8 9 12 10 9 10 14 16 13 9 5 9 15 18 21 22
Wind_Direction
327 327 325 318 313 300 273 238 219 163 148 170 177 180 178 172 130 168 209 227 205 198 178 160 177 140 135 118 122 104 76 20 43 72 57 48 47 22 31 32 35 30 169 159 162 156 156 161 156 158 159 155 154 154 153 150 140 132 118 104 91 82 74 67 61 51 42 35 27 21 15 10 6 1
330 324 322 322 313 315 311 279 237 202 177 174 188 201 216 187 171 173 180 236 175 153 182 142 151 150 138 130 105 94 87 360 75 67 76 69 51 44 33 37 40 45 39 167 168 162 170 161 161 159 159 161 162 162 162 161 144 126 117 91 82 75 70 65 57 48 40 32 25 19 13 9 4 360
331 331 330 332 325 320 308 298 278 245 209 194 192 216 217 229 231 188 170 191 273 137 178 153 120 140 145 139 124 111 89 10 74 92 98 82 71 58 37 34 43 46 52 45 63 170 175 174 172 162 161 164 169 170 166 161 145 122 102 81 75 70 66 60 52 44 37 30 23 17 11 6 2 358
336 340 338 336 330 321 316 311 296 277 257 229 209 208 213 235 270 298 205 210 195 352 193 141 143 148 146 145 141 132 133 92 108 116 97 114 85 67 52 41 43 50 55 52 55 50 58 167 183 169 163 167 170 172 166 145 113 115 85 76 71 67 61 55 48 41 34 28 21 15 10 5 1 357
346 344 337 332 331 328 329 321 319 308 287 267 241 213 205 220 199 228 242 220 139 344 30 122 150 147 140 147 149 144 148 141 139 133 182 112 94 78 67 56 52 57 60 64 62 62 63 61 74 110 118 120 116 105 91 96 116 96 80 73 68 63 56 51 44 38 31 25 18 13 9 5 1 357
346 343 337 334 332 338 332 320 313 308 300 290 264 245 221 218 205 199 181 164 161 168 106 110 123 141 156 129 162 156 157 155 143 143 95 60 97 91 76 62 64 67 74 74 72 75 72 71 72 81 82 85 80 83 105 120 101 89 79 71 65 60 54 48 43 35 28 21 16 12 8 5 1 357
343 343 342 337 339 339 333 326 315 311 303 294 285 274 258 243 222 198 195 163 171 160 164 152 153 170 165 155 162 153 154 147 144 128 97 85 74 85 80 79 61 76 82 79 81 81 82 84 86 88 92 98 116 125 114 105 98 83 74 68 64 58 52 46 39 33 25 20 15 11 8 3 359 356
344 345 340 339 339 336 331 326 323 320 315 302 288 274 271 269 253 214 203 192 145 154 146 179 167 164 160 142 143 140 140 145 129 121 106 74 83 87 90 82 70 75 78 84 87 88 90 96 100 104 107 109 110 109 107 98 87 77 71 68 62 57 51 43 37 30 24 18 14 11 7 2 357 354
334 339 340 337 338 338 334 328 330 331 326 321 305 280 271 254 245 202 191 175 146 150 162 143 158 148 133 110 127 146 143 134 115 122 118 112 93 82 84 78 84 84 83 85 88 90 94 98 103 109 115 117 116 111 105 98 86 79 75 69 62 55 47 41 32 27 21 17 13 8 4 358 354 349
331 331 335 338 340 341 337 329 327 329 327 323 313 300 300 285 192 173 154 139 137 149 149 151 142 165 153 137 151 160 147 140 134 117 112 105 114 124 107 90 80 87 102 101 93 93 95 102 111 120 125 124 118 112 106 97 86 79 74 68 61 54 47 38 31 24 19 15 9 4 359 354 350 346
324 323 322 330 343 341 336 328 325 324 320 317 310 310 311 337 133 125 140 140 136 137 134 111 133 140 138 146 153 162 139 144 152 145 133 125 149 131 141 129 112 118 112 103 104 125 121 109 114 129 129 126 119 111 104 95 84 78 76 70 62 53 44 37 29 22 16 11 5 359 354 350 346 344
319 320 324 323 333 341 328 322 315 317 316 317 307 306 315 316 134 147 136 136 136 138 142 147 156 158 147 136 107 122 138 137 164 186 150 153 157 154 118 114 146 161 137 131 125 125 132 134 128 128 131 131 124 112 101 98 86 83 81 73 63 51 41 33 26 19 12 5 360 355 350 346 343 340
322 327 330 328 322 315 312 308 307 307 306 310 308 303 292 279 224 149 149 147 135 131 134 121 125 141 157 166 159 167 182 192 183 163 143 139 135 134 116 59 52 92 150 155 133 153 157 143 151 142 139 155 146 130 118 98 93 85 83 76 64 50 39 30 23 16 8 2 356 352 347 342 339 337
319 327 331 325 320 317 314 317 329 326 321 311 291 299 302 261 224 199 173 167 168 157 159 166 161 165 182 182 187 187 192 161 134 157 158 149 149 125 104 58 353 13 104 132 130 144 154 154 170 159 135 139 122 131 115 140 124 89 82 75 66 53 39 27 18 11 4 357 353 348 343 339 335 333
317 322 323 323 317 314 313 317 332 341 332 326 327 320 327 329 261 214 188 190 180 174 178 167 172 184 183 190 185 188 173 177 175 171 163 146 152 160 158 164 76 160 134 138 120 127 143 111 137 143 135 130 92 107 147 148 132 101 75 65 57 48 38 26 13 4 358 352 348 343 340 335 332 329
308 311 315 314 312 309 306 305 309 348 350 341 345 2 5 0 2 359 246 187 184 186 170 175 192 182 193 183 178 179 175 178 169 171 164 165 168 166 172 154 158 164 122 153 131 152 160 89 118 127 143 126 155 161 169 179 152 110 70 45 38 37 33 22 9 359 352 348 344 340 336 333 330 328
301 304 306 308 306 307 304 302 299 294 3 353 6 9 5 8 2 356 0 345 223 188 177 188 190 198 182 175 193 185 177 165 167 168 166 170 167 168 152 128 118 204 132 119 134 138 192 119 143 120 132 124 125 263 180 174 164 122 68 27 18 22 25 16 4 354 349 346 341 338 334 331 330 327
293 292 296 300 302 305 301 286 288 284 260 256 353 1 8 356 345 346 345 337 336 271 198 185 198 200 181 195 183 173 162 168 175 175 173 165 159 147 117 95 98 52 53 151 140 102 170 117 105 131 140 84 349 289 195 175 167 151 13 1 6 12 17 9 358 353 348 345 342 337 336 331 329 328
292 288 286 285 288 296 295 279 267 268 261 245 157 89 26 5 352 345 334 327 316 299 219 197 179 170 171 158 148 158 167 172 163 168 158 147 124 110 110 92 95 66 45 55 95 136 137 73 89 4 62 357 353 307 332 170 155 131 340 356 357 8 6 0 355 350 349 344 342 339 336 333 330 327
286 283 277 279 282 287 290 283 268 256 248 236 218 161 119 66 24 20 2 3 348 5 41 109 128 133 122 124 129 133 133 120 111 97 94 101 120 125 120 118 114 84 24 24 114 117 117 33 108 281 26 39 356 338 14 133 119 48 2 358 1 3 359 353 352 349 347 344 340 339 335 332 330 326
283 281 275 268 270 274 280 287 285 271 242 235 231 203 155 121 94 52 12 47 66 85 94 105 112 115 114 113 114 118 126 134 132 126 124 151 153 139 133 127 127 113 70 356 17 103 113 10 99 264 313 351 353 42 63 41 33 16 4 3 5 359 356 352 349 347 344 342 340 338 337 333 328 324
283 279 274 265 260 265 268 282 282 269 248 239 235 216 186 158 151 130 39 26 40 60 71 75 82 88 96 98 95 95 103 124 152 156 167 171 157 159 156 140 129 130 88 338 330 92 125 118 358 68 292 45 77 90 56 54 6 9 2 1 2 356 352 350 346 345 343 340 340 341 337 333 327 321
280 282 277 266 255 252 262 271 273 263 243 240 236 219 210 198 185 176 151 129 110 8 63 47 45 50 47 47 58 78 80 73 60 57 132 160 167 163 153 132 122 88 271 52 327 106 300 88 318 75 69 36 291 109 60 27 2 3 7 2 357 351 352 347 345 341 341 341 341 340 336 330 328 314
278 277 280 270 261 256 251 250 256 261 256 242 236 220 219 214 209 164 156 163 155 155 79 73 58 82 76 72 65 59 59 55 53 65 56 108 159 150 144 153 147 149 163 19 354 129 191 80 222 13 117 133 193 295 356 358 12 358 16 6 357 346 349 342 339 337 337 339 338 336 332 327 325 317
280 280 276 275 265 257 247 237 242 252 254 248 237 227 224 230 194 149 157 168 158 141 135 125 99 100 85 72 67 68 67 59 53 57 56 41 60 132 147 139 101 91 93 9 70 103 120 109 103 38 5 65 337 3 320 22 318 29 18 8 348 334 338 330 328 324 330 334 333 330 325 324 319 316
270 270 276 276 275 264 246 233 232 240 247 247 241 233 235 228 161 168 168 151 151 140 143 137 132 130 107 110 94 78 70 78 78 65 62 60 62 47 62 123 143 142 153 60 78 99 109 68 136 102 52 71 321 45 318 311 272 347 14 351 339 323 326 323 324 324 329 325 326 325 323 321 315 312
274 271 272 277 282 280 261 237 228 231 240 245 240 235 230 194 167 156 166 163 154 150 152 152 157 155 148 134 132 114 111 101 91 85 76 74 74 68 62 51 64 95 103 86 66 68 91 121 49 125 140 145 134 321 206 260 307 346 346 340 339 325 321 327 323 324 327 322 318 325 323 313 309 311
272 269 267 269 275 278 270 249 237 232 234 239 240 228 211 173 166 158 165 176 171 157 153 161 165 167 164 142 131 130 119 111 106 98 88 79 75 82 82 71 69 69 73 69 61 67 78 103 88 99 134 140 137 149 257 297 303 313 329 320 320 304 317 330 324 322 317 321 320 323 321 318 313 315
277 275 275 273 272 271 272 265 235 229 234 236 234 221 198 170 163 171 172 175 172 172 173 168 162 157 150 118 104 102 103 98 90 89 83 77 75 81 81 75 66 55 56 48 51 41 59 85 94 74 79 92 134 225 118 226 306 305 332 334 324 319 318 319 339 324 324 325 323 323 320 314 309 313
276 275 275 275 274 273 271 269 248 235 229 234 219 203 188 168 172 167 172 176 185 186 174 161 157 142 118 119 122 113 114 113 120 122 119 114 105 102 98 87 62 52 50 49 48 47 42 47 43 80 89 12 120 158 179 118 309 277 311 314 283 300 289 2 329 325 324 324 322 319 309 297 293 300
267 267 265 260 259 254 258 261 254 236 222 213 195 177 164 165 160 172 175 184 180 174 157 142 116 94 101 101 114 126 126 121 125 130 125 114 117 109 100 98 94 71 39 48 69 77 58 40 45 36 121 161 19 179 215 168 230 295 300 302 320 333 308 327 319 330 326 319 314 304 299 300 298 290
290 291 291 289 282 261 251 250 245 220 178 162 152 157 163 164 165 162 147 119 129 131 113 92 106 109 121 123 125 114 111 113 112 129 121 122 120 124 122 92 95 109 88 57 32 18 53 17 54 347 122 159 144 254 57 128 208 253 275 284 296 294 302 316 325 324 324 320 317 317 313 306 299 301
282 282 276 269 264 246 231 213 192 168 145 131 141 142 148 151 155 155 153 157 149 141 135 144 143 141 132 126 121 121 109 104 104 89 104 92 112 98 79 103 123 119 105 50 26 3 0 351 328 211 195 197 192 161 134 353 291 210 257 303 326 306 306 307 321 321 329 331 317 311 309 306 291 291
275 277 274 258 250 239 215 198 182 173 153 146 144 157 156 153 150 150 142 138 139 136 140 141 140 145 142 138 138 128 122 109 96 78 99 105 105 107 109 108 105 105 98 83 45 9 356 347 353 9 88 181 203 180 171 160 242 313 296 312 310 314 308 324 323 326 330 319 312 316 318 317 314 302
265 268 264 253 245 240 223 200 190 174 168 160 156 158 155 155 152 148 140 142 136 136 137 136 136 142 143 144 140 136 131 124 117 95 81 91 93 105 117 111 111 98 89 76 45 6 19 1 25 42 16 19 29 317 212 179 106 268 307 312 326 326 322 332 324 321 317 307 298 301 304 304 306 308
253 254 254 245 236 227 228 220 190 175 164 160 154 153 148 153 152 150 150 150 140 141 139 141 143 140 142 139 136 130 128 121 113 112 105 105 107 102 93 99 108 105 95 85 65 13 38 22 38 84 71 36 53 27 343 206 176 173 10 329 332 320 313 322 318 310 307 305 295 297 301 306 304 306
257 242 238 229 217 204 204 209 177 170 157 147 148 157 154 144 134 131 133 129 129 136 138 139 138 139 136 137 128 124 124 123 120 117 113 114 108 111 106 98 96 108 99 100 94 65 56 48 32 75 90 56 69 40 273 318 325 341 78 358 320 318 317 319 320 313 298 296 302 300 292 295 295 298
257 242 213 205 190 178 165 149 134 135 137 136 133 126 118 118 116 111 119 124 130 129 128 128 129 130 136 139 132 125 115 108 111 112 118 121 117 107 111 118 122 123 120 113 95 79 70 76 59 51 79 102 88 41 317 314 337 314 1 355 321 311 314 314 318 317 314 309 292 296 298 293 292 298
244 185 166 147 131 135 141 141 146 143 141 133 126 116 115 118 125 127 125 127 128 125 124 123 127 133 132 128 121 127 128 125 114 114 113 106 110 117 118 122 119 120 109 102 84 71 65 67 69 60 97 105 113 221 181 220 273 277 318 320 311 302 307 311 308 307 307 312 311 304 280 260 266 278
29 57 54 55 49 63 91 99 110 114 116 119 111 69 120 133 134 132 129 128 128 124 122 123 125 124 120 123 122 111 99 104 111 110 111 108 105 108 114 118 120 124 105 102 88 68 70 69 76 118 141 183 208 212 191 230 267 287 282 294 309 324 312 319 309 310 306 300 305 311 309 317 321 323
45 48 41 36 35 42 68 79 105 104 101 96 116 125 110 125 124 127 128 127 129 129 125 122 122 122 122 121 120 122 115 108 104 106 107 107 107 110 108 111 100 117 114 105 104 87 89 133 209 163 161 208 258 358 48 7 322 319 325 312 320 317 313 311 303 298 291 298 306 301 303 309 315 318
41 35 30 34 28 23 52 72 106 109 118 120 120 120 117 109 109 110 111 111 115 116 116 117 119 117 115 115 115 114 113 120 119 114 116 118 115 100 87 95 111 110 105 116 118 113 269 350 309 77 312 36 7 61 21 342 309 310 310 306 297 299 308 305 299 292 289 294 304 308 303 307 317 314
18 30 31 38 57 60 65 72 79 97 106 107 112 114 115 114 115 114 118 119 122 116 115 112 111 110 110 107 104 109 112 114 117 119 117 114 115 119 113 108 111 118 113 117 120 114 13 8 20 51 21 69 35 75 5 309 302 299 310 319 318 312 293 293 295 294 290 286 282 277 273 280 308 301
13 24 28 29 50 56 59 62 73 76 97 104 111 111 113 121 117 114 115 120 120 115 113 109 109 108 108 106 105 101 99 104 113 113 115 112 114 115 120 120 115 113 107 109 82 63 28 15 352 72 58 20 18 40 345 330 326 319 312 311 313 321 320 314 287 276 283 283 283 277 273 279 278 279
3 14 23 33 40 53 56 61 71 83 91 101 105 109 107 103 107 105 103 106 107 107 106 107 107 105 104 109 108 99 103 104 102 101 104 109 110 112 112 122 120 115 111 126 119 56 29 30 357 41 59 20 10 15 318 322 310 319 317 322 320 320 318 328 330 328 323 313 255 275 297 300 300 300